Location: Asheville, NC
(35.6000°N, 82.5500°W)
Time: 02:30:05
(UTC-04:00)

ZACube-1 - Pass Details

Date: 14 March 2018
Orbit: 584 x 668 km, 97.6° (Epoch: 20 June)

Event Time Altitude Azimuth Distance (km) Brightness Sun altitude
Rises 21:27:43 0° 194° (SSW) 2,892 ? -23.1°
Reaches altitude 10° 21:30:14 10° 207° (SSW) 1,975 ? -23.6°
Maximum altitude 21:33:48 26° 264° (W) 1,222 ? -24.3°
Drops below altitude 10° 21:37:20 10° 320° (NW) 1,946 ? -25.0°
Sets 21:39:47 0° 334° (NNW) 2,841 ? -25.5°
